User: anonymous
Location: Unspecified
(0.0000°N, 0.0000°E)
Time: 18:16:41
(UTC+02:00)
Language:

NATO 3D Rocket - Orbit

View from above orbital plane
View from above orbital plane
View from above satellite
View from above satellite

Ground track
Ground track

The orbit data is extracted from the following two-line orbital elements,

1 15392U 84115B   14272.06942535  .00000211  00000-0  38471-4 0  2038
2 15392 021.4975 164.3729 1034829 196.3183 310.8325 12.45433945360225
Epoch (UTC): 29 September 2014 01:39:58
Eccentricity: 0.1034829
inclination: 21.4975°
perigee height: 670 km
apogee height: 2297 km
right ascension of ascending node: 164.3729°
argument of perigee: 196.3183°
revolutions per day: 12.45433945
mean anomaly at epoch: 310.8325°
orbit number at epoch: 36022

The dashed part of the orbit path shows where the satellite is in the earth's shadow,  

DLR